"Pseudo-MPEC" for P11Jo6b

Created 2023 Sep 27 1:22:11 UT using Find_Orb

Click here for an explanation of pseudo-MPECs

 
 Astrometry: 
     P11Jo6b  C2023 09 13h;JywbbiAstrometryTB8KOrX+FcgQwZ(vOredacted;0MCe;_5nF51
     P11Jo6b* C2023 09 136x1Y,SrW)D5hDx0OP0clickm0li9#p6hfO#ZeUEEayqr\ohere.JF51
     P11Jo6b  C2023 09 139`Zh6k67Ym:**\p3:*yIPxeOo]1dforE[W,pyv;iQRIxGS\)#pC-F51
     P11Jo6b  C2023 09 13om7GX@oQZ;gk!]jQxZ\*][Qj=5G3explanationXT\%F)7fyarY9F51
     P11Jo6b  C2023 09 13JWPob()E2@ddCy1W1?mkew\RvCJ0ycZ09)sA2-RxqAJ'R6GF'2wcF52
     P11Jo6b  C2023 09 13dsah]`+qD!j?4bM@`x7[#49e4tRe78x_v9jndio.b]p5$0hokEgYF52

Station data:
(F51) Pan-STARRS 1, Haleakala  (N20.707234 W156.255910)  US/Hawaii.
   Observers J. Bulger, T. Lowe, A. Schultz, M. Willman. Measurers K.
   Chambers, S. Chastel, T. de Boer, L. Denneau, J. Fairlamb, H. Flewelling,
   M. Huber, C.-C. Lin, E. Magnier, Y. Ramanjooloo, R. Wainscoat, R. Weryk.
   1.8-m Ritchey-Chrétien + CCD.
(F52) Pan-STARRS 2, Haleakala  (N20.707382 W156.255910)  US/Hawaii.
   Observers J. Bulger, T. Dukes, T. Lowe, A. Schultz, M. Willman. Measurers
   K. Chambers, S. Chastel, T. de Boer, L. Denneau, J. Fairlamb, H.
   Flewelling, M. Huber, C.-C. Lin, E. Magnier, Y. Ramanjooloo, R. Wainscoat,
   R. Weryk. 1.8-m Ritchey-Chrétien + CCD.

Orbital elements:  P11Jo6b
   Perihelion 2023 Aug 26.27105 +/- 55.8 TT =  6:30:19 (JD 2460182.77105)
Epoch 2023 Sep 13.0 TT = JDT 2460200.5   Earth MOID: 0.5302      AutoNEOCP
M   4.63764581 +/- 16               (J2000 ecliptic)
n   0.26158608 +/- 0.213            Peri.  345.93980 +/- 50
a   2.42136143 +/- 1.31             Node   348.64639 +/- 2.4
e   0.3653454 +/- 0.228             Incl.   12.35309 +/- 6
P   3.77                   H 22.29  G  0.15   U 11.7  SR
q 1.53672805 +/- 0.383    Q 3.30599481 +/- 29.4
From 6 observations 2023 Sept. 13 (4.6 hr); mean residual 0".09
Residuals in arcseconds: 
230913 F51  .15-  .03+    230913 F51  .14+  .06-    230913 F52  .05+  .11+    
230913 F51  .06+  .08+    230913 F51  .04-  .05-    230913 F52  .06-  .09-    

Ephemerides (geocentric):
Date (UTC) HH   RA             Dec           delta  r     elong  mag " sig PA
---- --------  ------------   ------------  ------ ------ -----  --- --------
2023 09 27 01  22 29 51.882   -06 27 33.07  .59749 1.5595 153.3 23.0 3652  32
2023 09 27 02  22 29 50.866   -06 26 49.58  .59770 1.5596 153.2 23.0 3673  32
2023 09 27 03  22 29 49.855   -06 26 06.09  .59790 1.5596 153.2 23.0 3693  32
2023 09 27 04  22 29 48.849   -06 25 22.62  .59811 1.5597 153.1 23.0 3714  32
2023 09 27 05  22 29 47.847   -06 24 39.17  .59831 1.5597 153.1 23.0 3736  32
2023 09 27 06  22 29 46.849   -06 23 55.72  .59852 1.5598 153.1 23.0 3757  32
2023 09 27 07  22 29 45.856   -06 23 12.29  .59872 1.5599 153.0 23.0 3778  32
2023 09 27 08  22 29 44.867   -06 22 28.88  .59893 1.5599 153.0 23.0 3799  32
2023 09 27 09  22 29 43.883   -06 21 45.48  .59913 1.5600 152.9 23.0 3821  32
2023 09 27 10  22 29 42.904   -06 21 02.09  .59934 1.5600 152.9 23.1 3842  32
2023 09 27 11  22 29 41.929   -06 20 18.71  .59955 1.5601 152.9 23.1 3864  31
2023 09 27 12  22 29 40.958   -06 19 35.35  .59975 1.5602 152.8 23.1 3885  31
2023 09 27 13  22 29 39.992   -06 18 52.00  .59996 1.5602 152.8 23.1 3907  31
2023 09 27 14  22 29 39.031   -06 18 08.67  .60017 1.5603 152.7 23.1 3929  31
2023 09 27 15  22 29 38.074   -06 17 25.34  .60038 1.5603 152.7 23.1 3950  31
2023 09 27 16  22 29 37.121   -06 16 42.04  .60058 1.5604 152.7 23.1 3972  31
2023 09 27 17  22 29 36.173   -06 15 58.74  .60079 1.5605 152.6 23.1 3994  31
2023 09 27 18  22 29 35.230   -06 15 15.46  .60100 1.5605 152.6 23.1 4016  31
2023 09 27 19  22 29 34.291   -06 14 32.19  .60121 1.5606 152.5 23.1 4038  31
2023 09 27 20  22 29 33.357   -06 13 48.94  .60142 1.5606 152.5 23.1 4060  31
2023 09 27 21  22 29 32.427   -06 13 05.70  .60163 1.5607 152.4 23.1 4083  31
2023 09 27 22  22 29 31.502   -06 12 22.48  .60184 1.5608 152.4 23.1 4105  31
2023 09 27 23  22 29 30.581   -06 11 39.26  .60205 1.5608 152.4 23.1 4127  31
2023 09 28 00  22 29 29.665   -06 10 56.07  .60226 1.5609 152.3 23.1 4150  31
2023 09 28 01  22 29 28.753   -06 10 12.88  .60247 1.5609 152.3 23.1 4172  30
2023 09 28 02  22 29 27.846   -06 09 29.71  .60268 1.5610 152.2 23.1 4195  30
2023 09 28 03  22 29 26.943   -06 08 46.55  .60289 1.5611 152.2 23.1 4218  30
2023 09 28 04  22 29 26.045   -06 08 03.41  .60310 1.5611 152.2 23.1 4241  30
2023 09 28 05  22 29 25.151   -06 07 20.28  .60331 1.5612 152.1 23.1 4263  30
2023 09 28 06  22 29 24.262   -06 06 37.17  .60353 1.5612 152.1 23.1 4286  30
2023 09 28 07  22 29 23.378   -06 05 54.07  .60374 1.5613 152.0 23.1 4309  30
2023 09 28 08  22 29 22.498   -06 05 10.98  .60395 1.5614 152.0 23.1 4333  30
2023 09 28 09  22 29 21.622   -06 04 27.91  .60416 1.5614 152.0 23.1 4356  30
2023 09 28 10  22 29 20.751   -06 03 44.85  .60438 1.5615 151.9 23.1 4379  30
2023 09 28 11  22 29 19.885   -06 03 01.80  .60459 1.5615 151.9 23.1 4402  30
2023 09 28 12  22 29 19.023   -06 02 18.77  .60480 1.5616 151.8 23.1 4426  30
2023 09 28 13  22 29 18.166   -06 01 35.75  .60502 1.5617 151.8 23.1 4449  30
2023 09 28 14  22 29 17.313   -06 00 52.75  .60523 1.5617 151.8 23.1 4473  30
2023 09 28 15  22 29 16.465   -06 00 09.76  .60544 1.5618 151.7 23.1 4496  30
2023 09 28 16  22 29 15.621   -05 59 26.79  .60566 1.5619 151.7 23.1 4520  29
2023 09 28 17  22 29 14.782   -05 58 43.83  .60587 1.5619 151.6 23.1 4544  29
2023 09 28 18  22 29 13.947   -05 58 00.88  .60609 1.5620 151.6 23.1 4568  29
2023 09 28 19  22 29 13.117   -05 57 17.95  .60631 1.5620 151.5 23.1 4592  29
2023 09 28 20  22 29 12.292   -05 56 35.03  .60652 1.5621 151.5 23.1 4616  29
2023 09 28 21  22 29 11.471   -05 55 52.13  .60674 1.5622 151.5 23.1 4640  29
2023 09 28 22  22 29 10.654   -05 55 09.24  .60695 1.5622 151.4 23.1 4664  29
2023 09 28 23  22 29 09.842   -05 54 26.36  .60717 1.5623 151.4 23.1 4689  29
2023 09 29 00  22 29 09.035   -05 53 43.50  .60739 1.5624 151.3 23.1 4713  29